Regional Weather Roundup
Issued by NWS

Home | Current Version | Previous Version | Text Only | Print | Product List | Glossary On
Versions: 1 2 3 4 5 6 7 8 9 10 11 12 13 14 15 16 17 18 19 20 21 22 23 24 25 26 27 28 29 30 31 32 33 34 35 36 37 38 39 40 41 42 43 44 45 46 47 48 49 50
000
ASUS43 KLMK 060010
RWRKY
KENTUCKY REGIONAL WEATHER ROUNDUP
NATIONAL WEATHER SERVICE LOUISVILLE KY
800 PM EDT TUE MAY 05 2015

NOTE "FAIR" INDICATES FEW OR NO CLOUDS BELOW 12,000 FEET
WITH NO SIGNIFICANT WEATHER AND/OR OBSTRUCTIONS TO VISIBILITY.

KYZ001>023-026-027-061>063-070>075-060100-
WESTERN AND SOUTH CENTRAL KENTUCKY

CITY           SKY/WX    TMP DP  RH WIND       PRES   REMARKS
PADUCAH        PTCLDY    81  54  39 S6        30.12S
HENDERSON      CLEAR     81  50  34 S9        30.13S
OWENSBORO      CLEAR     81  55  40 S8        30.15S
HOPKINSVILLE   CLEAR     80  52  37 S5        30.15F
BOWLING GREEN  CLEAR     80  52  37 S5        30.17S
GLASGOW        CLEAR     79  53  40 CALM      30.18S
$$

KYZ024-025-028>034-038-045-046-053-060100-
NORTH CENTRAL KENTUCKY

CITY           SKY/WX    TMP DP  RH WIND       PRES   REMARKS
LOUISVILLE/SDF CLEAR     81  51  35 SW8       30.16S
LOUISVILLE/LOU CLEAR     81  50  33 SW3       30.17S
FORT KNOX      NOT AVBL
$$

KYZ035>037-039>044-047>052-055>060-089>105-060100-
NORTHEAST KENTUCKY

CITY           SKY/WX    TMP DP  RH WIND       PRES   REMARKS
LEXINGTON      CLEAR     76  55  48 SW3       30.20S
COVINGTON      PTCLDY    77  53  43 S5        30.18S
FRANKFORT      CLEAR     79  51  37 CALM      30.18S
$$

KYZ054-064>069-076>088-106>120-060100-
SOUTHEAST KENTUCKY

CITY           SKY/WX    TMP DP  RH WIND       PRES   REMARKS
JACKSON        CLEAR     79  49  34 N3        30.22S
LONDON         CLEAR     81  46  29 CALM      30.20F
SOMERSET       CLEAR     77  48  36 W3        30.21S
MIDDLESBORO    PTCLDY    76  55  47 W3        30.21S
MONTICELLO     CLEAR     78  57  48 CALM      30.22F
$$




USA.gov is the U.S. government's official web portal to all federal, state and local government web resources and services.